Weather Roundup
Issued by NWS

Home | Current Version | Previous Version | Text Only | Print | Product List | Glossary On
Versions: 1 2 3 4 5 6 7 8 9 10 11 12 13 14 15 16 17 18 19 20 21 22 23 24 25 26 27 28 29 30 31 32 33 34 35 36 37 38 39 40 41 42 43 44 45 46 47 48 49 50
012
NZUS93 KARX 250210
HRRWXR

CURRENT HOURLY OBSERVATIONS ACROSS
MUCH OF THE UPPER MISSISSIPPI VALLEY
NATIONAL WEATHER SERVICE LA CROSSE WI
900 PM CDT MON APR 24 2017


...SOUTHEAST MINNESOTA...


CITY           SKY/WX    TMP DP  RH WIND       PRES   REMARKS
ROCHESTER      CLOUDY    59  35  40 SE9       29.62S
ROCHESTER/MAYO CLOUDY    64  32  30 SE8       29.62R
WINONA         CLOUDY    63  34  34 CALM      29.63R
AUSTIN         MOCLDY    63  30  29 SE7       29.60S
ALBERT LEA     PTCLDY    63  28  27 S9        29.57F
DODGE CENTER   LGT RAIN  61  36  39 E3        29.61S
PRESTON        CLOUDY    63  29  28 S10       29.63R
OWATONNA       CLOUDY    66  28  24 S12       29.58S
FARIBAULT      CLOUDY    66  30  26 SE12G20   29.58S
$$

...ELSEWHERE IN MINNESOTA...


CITY           SKY/WX    TMP DP  RH WIND       PRES   REMARKS
MINNEAPOLIS    CLOUDY    66  33  29 SE12      29.55F
INTNL FALLS    LGT RAIN  36  33  89 E14G23    29.67S WCI  27
DULUTH         LGT RAIN  36  32  85 E14       29.65F WCI  27
RED WING       CLOUDY    66  27  22 S6        29.60R
REDWOOD FALLS  CLOUDY    62  43  49 S13       29.50S
MANKATO        CLOUDY    66  32  28 S13       29.54F
WORTHINGTON    CLOUDY    57  47  69 SE5       29.51S
FAIRMONT       LGT RAIN  62  39  42 S9        29.54R
$$

...SOUTHWEST WISCONSIN...


CITY           SKY/WX    TMP DP  RH WIND       PRES   REMARKS
LA CROSSE      CLOUDY    66  35  31 SE7       29.63R
PRAIRIE DU CHI CLOUDY    69  22  17 SE8       29.65R
BOSCOBEL       CLOUDY    69  26  20 VRB5      29.66F
LONE ROCK      CLOUDY    65  30  27 E13       29.67F
PLATTEVILLE    PTCLDY    65  33  30 SE8       29.68F
FORT MC COY    CLOUDY    66  29  25 SE7       29.66S
CAMP DOUGLAS   CLOUDY    64  30  27 SE10      29.67F
MAUSTON-NEW LI MOCLDY    65  30  26 SE7       29.67F
VIROQUA        CLOUDY    65  28  24 SE9       29.67R
WIS DELLS      PTCLDY    62  32  31 SE13      29.71S
$$

...ELSEWHERE IN WISCONSIN...


CITY           SKY/WX    TMP DP  RH WIND       PRES   REMARKS
MILWAUKEE      MOCLDY    52  31  44 CALM      29.79S
MADISON        MOCLDY    62  34  35 SE14      29.73F
GREEN BAY      CLOUDY    55  36  48 SE8       29.80S
EAU CLAIRE     CLOUDY    66  29  24 S8G16     29.64R
BLACK RVR FLS  MOCLDY    65  26  23 CALM      29.66R
MEDFORD        CLOUDY    59  33  38 SE5       29.69F
WAUSAU         CLOUDY    61  35  37 SE14G25   29.70R
WIS RAPIDS     NOT AVBL
MARSHFIELD     CLOUDY    62  30  29 SE10      29.69R
RICE LAKE      CLOUDY    63  30  29 SE9       29.64S
$$

...NORTHEAST IOWA...


CITY           SKY/WX    TMP DP  RH WIND       PRES   REMARKS
WATERLOO       CLOUDY    66  28  24 SE13      29.62R
DUBUQUE        MOCLDY    65  30  27 SE12      29.67F
DECORAH        CLOUDY    63  32  31 SE8       29.63S
MASON CITY     PTCLDY    60  32  34 SE9       29.60R
CHARLES CITY   CLOUDY    64  28  25 S12       29.62S
OELWEIN        CLOUDY    64  32  29 S10       29.64R
$$

...ELSEWHERE IN IOWA...


CITY           SKY/WX    TMP DP  RH WIND       PRES   REMARKS
DES MOINES     PTCLDY    65  32  29 SE9       29.60R
IOWA CITY      CLOUDY    66  32  28 SE6       29.66R
FORT DODGE     MOCLDY    66  30  26 S9        29.58R
MARSHALLTOWN   PTCLDY    62  31  31 SE7       29.61R
CEDAR RAPIDS   PTCLDY    68  29  23 S13       29.63S
$$

...NORTHERN ILLINOIS...


CITY           SKY/WX    TMP DP  RH WIND       PRES   REMARKS
CHICAGO-OHARE  PTCLDY    58  32  37 E6        29.77R
CHICAGO-MIDWAY PTCLDY    59  37  44 E9        29.77F
MOLINE         CLOUDY    59  37  44 SE9       29.67F
ROCKFORD       PTCLDY    63  32  31 SE8       29.76R
PEORIA         PTCLDY    69  24  18 SE7       29.70S
$$

NOTE: "FAIR" INDICATES FEW OR NO CLOUDS BELOW 12,000 FEET WITH NO
SIGNIFICANT WEATHER AND/OR OBSTRUCTIONS TO VISIBILITY. WIND
SPEEDS ARE IN MILES-PER-HOUR.




USA.gov is the U.S. government's official web portal to all federal, state and local government web resources and services.